Weather in Pakenham

Australia     38°04′17″S   145°28′53″E
temp.,
°C
wind,
m/s
gust,
m/s
humid.,
%
clouds,
%
prec.,
mm/h
press.,
hPa
HPBL,
m
27 january, wed
wed2723:00+13s368078 0.2 1012623
02:00+12sse257193 0.0 1012845
05:00+8ese139169 0.0 101389
08:00+12se267545 0.0 1015425
11:00+18se375528 0.0 10151049
14:00+24se47360 0.0 10151355
17:00+24ese610370 0.0 10141225
20:00+18ese614640 0.0 1015882
28 january, thu
thu2823:00+16ese615740 0.0 1017775
02:00+16e4137690 0.0 1017650
05:00+15e4107878 0.0 1018490
08:00+17e411700 0.0 1019558
11:00+23ese49515 0.0 1020731
14:00+24ese494773 0.0 1017689
17:00+24ese495083 0.0 1017679
20:00+16e399180 0.8 1017362
29 january, fri
fri2923:00+15e299089 1.1 1018354
02:00+14e258744 0.0 1015166
05:00+15e128569 0.1 101585
08:00+15e1197100 1.6 101462
11:00+15e1399100 7.9 1014135
14:00+16ese1299100 1.7 1012100
17:00+17e1599100 5.8 1010301
20:00+18ne1699100 0.1 1009247
30 january, sat
sat3023:00+18n1597100 0.1 1009160
02:00+18n21396100 0.0 1008570
05:00+18nw199694 0.1 1008429
08:00+17w259696 0.4 1010341
11:00+18w258598 0.4 1011559
14:00+23wsw355883 0.0 10111066
17:00+19s368092 0.1 1011603
20:00+17s257996 0.0 1013673
31 january, sun
sun3123:00+15nnw018990 0.1 101532
02:00+15s2692100 0.1 1014448
05:00+14sse169398 0.3 1015375
08:00+14s2689100 0.1 1016455
11:00+18s346079 0.2 10171044
14:00+20s345316 0.0 1016970
17:00+20ssw35608 0.0 1015750
20:00+16ssw26807 0.0 1015466